This demonstration page uses our WeatherBlox Daily Observations layout. Learn more.

Left ArrowRight Arrow

41.12389, -100.76542

Hourly Observations for February 25, 2017

Temp ( °F °C ) Dew Point ( °F °C ) Humidity (%) Winds ( mph kmh ) Pressure ( in mb ) Visibility ( mi km ) Precip ( " mm )
12:53 am 00:53 Clear 10 -12.2 5 -15 80 80 NW 7 11 30.26 1025 10 16 0.00 0.00
1:53 am 01:53 Clear 9 -12.8 5 -15 84 84 Calm 30.24 1024 10 16 0.00 0.00
2:53 am 02:53 Clear 7 -13.9 2 -16.7 80 80 Calm 30.23 1024 10 16 0.00 0.00
3:48 am 03:48 Partly Cloudy with Mist and Fog 5 -15 2 -16.7 87 87 Calm 30.21 1023 2 3 0.00 0.00
3:55 am 03:55 Partly Cloudy with Mist and Fog 7 -14 1 -17 78 78 Calm 30.39 1029 2 3 0.00 0.00
3:57 am 03:57 Mostly Clear with Mist and Fog 6 -14.4 2 -16.7 83 83 Calm 30.39 1029 3 5 0.00 0.00
4:45 am 04:45 Mostly Cloudy 6 -14.4 2 -16.7 83 83 Calm 30.36 1028 10 16 0.00 0.00
4:53 am 04:53 Mostly Cloudy 4 -15.6 0 -17.8 83 83 Calm 30.21 1023 10 16 0.00 0.00
5:33 am 05:33 Cloudy with Mist and Fog 5 -15 1 -17.2 83 83 Calm 30.36 1028 2 3 0.00 0.00
5:37 am 05:37 Mostly Cloudy with Mist and Fog 6 -14.4 2 -16.7 83 83 Calm 30.36 1028 1 1 0.00 0.00
5:53 am 05:53 Mostly Cloudy with Mist and Fog 5 -15 1 -17.2 83 83 Calm 30.20 1023 1 1 0.00 0.00
6:10 am 06:10 Mostly Cloudy with Mist and Fog 7 -14 3 -16 85 85 Calm 30.36 1028 1 2 0.00 0.00
6:13 am 06:13 Mostly Cloudy with Mist and Fog 7 -14 1 -17 78 78 Calm 30.36 1028 2 3 0.00 0.00
6:24 am 06:24 Mostly Cloudy with Mist and Fog 7 -14 3 -16 85 85 Calm 30.36 1028 1 2 0.00 0.00
6:31 am 06:31 Mostly Cloudy with Mist and Fog 4 -15.6 1 -17.2 88 88 Calm 30.36 1028 2 3 0.00 0.00
6:39 am 06:39 Mostly Cloudy 5 -15 -1 -18.3 76 76 Calm 30.36 1028 8 13 0.00 0.00
6:53 am 06:53 Mostly Cloudy 5 -15 1 -17.2 83 83 Calm 30.19 1022 9 14 0.00 0.00
7:13 am 07:13 Cloudy with Mist and Fog 4 -15.6 0 -17.8 83 83 Calm 30.33 1027 2 2 0.00 0.00
7:15 am 07:15 Cloudy with Mist and Fog 3 -16 0 -18 85 85 Calm 30.33 1027 1 1 0.00 0.00
7:31 am 07:31 Cloudy with Mist and Fog 3 -16 0 -18 85 85 E 3 6 30.33 1027 2 3 0.00 0.00
7:41 am 07:41 Mostly Cloudy with Mist and Fog 4 -15.6 0 -17.8 83 83 E 3 6 30.33 1027 1 1 0.00 0.00
7:51 am 07:51 Mostly Cloudy with Mist and Fog 3 -16 1 -17 92 92 E 3 6 30.33 1027 2 3 0.00 0.00
7:53 am 07:53 Mostly Cloudy with Mist and Fog 4 -15.6 1 -17.2 88 88 ENE 3 6 30.19 1022 3 4 0.00 0.00
8:01 am 08:01 Partly Cloudy with Mist and Fog 7 -14 1 -17 78 78 NNE 3 6 30.30 1026 3 5 0.00 0.00
8:53 am 08:53 Sunny 13 -10.6 10 -12.2 88 88 Calm 30.17 1022 10 16 0.00 0.00
9:53 am 09:53 Sunny 19 -7.2 13 -10.6 77 77 SW 8 13 30.13 1020 10 16 0.00 0.00
10:53 am 10:53 Sunny 24 -4.4 15 -9.4 68 68 WSW 10 17 30.10 1019 10 16 0.00 0.03
11:53 am 11:53 Sunny 26 -3.3 16 -8.9 66 66 W 10 17 30.08 1019 10 16 0.00 0.00
12:53 pm 12:53 Sunny 29 -1.7 19 -7.2 66 66 W 12 19 30.05 1018 10 16 0.00 0.00
1:53 pm 13:53 Sunny 32 0 19 -7.2 59 59 W 16 26 30.03 1017 10 16 0.00 0.00
2:53 pm 14:53 Sunny 34 1.1 21 -6.1 59 59 W 14 22 30.01 1016 10 16 0.00 0.00
3:53 pm 15:53 Sunny 34 1.1 21 -6.1 59 59 WNW 13 20 29.99 1016 10 16 0.00 0.00
4:53 pm 16:53 Sunny 35 1.7 20 -6.7 54 54 W 12 19 29.99 1016 10 16 0.00 0.00
5:53 pm 17:53 Sunny 33 0.6 16 -8.9 49 49 W 10 17 29.98 1015 10 16 0.00 0.00
6:53 pm 18:53 Clear 24 -4.4 14 -10 65 65 WNW 8 13 29.99 1016 10 16 0.00 0.00
7:53 pm 19:53 Clear 24 -4.4 15 -9.4 68 68 SW 5 7 29.99 1016 10 16 0.00 0.00
8:53 pm 20:53 Partly Cloudy 24 -4.4 17 -8.3 75 75 Calm 29.96 1015 10 16 0.00 0.00
9:53 pm 21:53 Partly Cloudy 23 -5 16 -8.9 74 74 S 3 6 29.95 1014 10 16 0.00 0.00
10:53 pm 22:53 Mostly Clear 21 -6.1 14 -10 74 74 Calm 29.94 1014 10 16 0.00 0.00
11:53 pm 23:53 Clear 18 -7.8 12 -11.1 77 77 W 6 9 29.94 1014 10 16 0.00 0.00

Powered by AerisWeather